�������l�o���
Date,Time,MP-1(��Sv/h),MP-2(��Sv/h),MP-3(��Sv/h),MP-4(��Sv/h),MP-5(��Sv/h),MP-6(��Sv/h),MP-7(��Sv/h),MP-8(��Sv/h),����,����(m/s),���J
2019/09/20,00:00,0.738,1.051,0.720,1.288,0.944,0.422,0.733,0.693,�k��,3.7,��
2019/09/20,00:10,0.739,1.048,0.721,1.285,0.943,0.420,0.735,0.694,�k��,3.8,��
2019/09/20,00:20,0.738,1.051,0.720,1.287,0.942,0.421,0.734,0.692,�k��,4.2,��
2019/09/20,00:30,0.739,1.051,0.722,1.287,0.942,0.421,0.733,0.694,�k��,4.1,��
2019/09/20,00:40,0.738,1.051,0.720,1.285,0.940,0.421,0.733,0.693,�k��,4.5,��
2019/09/20,00:50,0.738,1.048,0.720,1.287,0.943,0.422,0.732,0.694,�k��,4.5,��
2019/09/20,01:00,0.737,1.047,0.721,1.284,0.944,0.421,0.733,0.692,�k��,3.8,��
2019/09/20,01:10,0.737,1.051,0.721,1.287,0.942,0.422,0.732,0.692,���k��,3.4,��
2019/09/20,01:20,0.738,1.049,0.723,1.285,0.941,0.420,0.733,0.693,���k��,4.2,��
2019/09/20,01:30,0.738,1.047,0.723,1.286,0.941,0.420,0.734,0.693,���k��,4.7,��
2019/09/20,01:40,0.738,1.050,0.720,1.284,0.941,0.422,0.733,0.693,��,5.0,��
2019/09/20,01:50,0.739,1.048,0.722,1.287,0.941,0.420,0.733,0.693,���k��,4.8,��
2019/09/20,02:00,0.738,1.048,0.720,1.288,0.944,0.422,0.731,0.692,���k��,3.7,��
2019/09/20,02:10,0.739,1.051,0.719,1.286,0.941,0.421,0.735,0.694,���k��,3.0,��
2019/09/20,02:20,0.738,1.048,0.721,1.287,0.942,0.422,0.734,0.693,�k��,4.0,��
2019/09/20,02:30,0.738,1.049,0.721,1.285,0.943,0.421,0.733,0.692,���k��,3.8,��
2019/09/20,02:40,0.738,1.049,0.720,1.284,0.942,0.421,0.732,0.695,��,2.2,��
2019/09/20,02:50,0.738,1.050,0.721,1.285,0.942,0.421,0.733,0.693,��쐼,1.9,��
2019/09/20,03:00,0.738,1.047,0.721,1.285,0.941,0.422,0.735,0.692,��,1.7,��
2019/09/20,03:10,0.738,1.050,0.721,1.286,0.943,0.420,0.732,0.693,�쓌,0.9,��
2019/09/20,03:20,0.737,1.050,0.721,1.288,0.941,0.421,0.734,0.693,��쐼,1.1,��
2019/09/20,03:30,0.738,1.048,0.723,1.287,0.941,0.422,0.734,0.695,���쐼,1.5,��
2019/09/20,03:40,0.737,1.048,0.721,1.286,0.939,0.422,0.734,0.695,���쐼,2.0,��
2019/09/20,03:50,0.739,1.050,0.720,1.287,0.943,0.420,0.733,0.693,��,2.0,��
2019/09/20,04:00,0.738,1.047,0.720,1.284,0.942,0.422,0.733,0.693,��,2.8,��
2019/09/20,04:10,0.738,1.049,0.720,1.287,0.940,0.420,0.733,0.693,���k��,1.5,��
2019/09/20,04:20,0.739,1.049,0.722,1.285,0.939,0.420,0.734,0.692,�k��,2.2,��
2019/09/20,04:30,0.738,1.047,0.719,1.284,0.941,0.420,0.734,0.695,��,2.2,��
2019/09/20,04:40,0.738,1.048,0.721,1.286,0.941,0.420,0.733,0.693,���쐼,2.5,��
2019/09/20,04:50,0.738,1.049,0.720,1.287,0.942,0.420,0.733,0.693,���쐼,3.4,��
2019/09/20,05:00,0.737,1.050,0.721,1.287,0.942,0.421,0.734,0.695,���쐼,4.9,��
2019/09/20,05:10,0.738,1.050,0.720,1.287,0.941,0.421,0.734,0.693,���쐼,5.9,��
2019/09/20,05:20,0.738,1.047,0.722,1.289,0.941,0.421,0.735,0.692,���쐼,5.7,��
2019/09/20,05:30,0.738,1.048,0.719,1.286,0.939,0.421,0.733,0.694,��,5.7,��
2019/09/20,05:40,0.740,1.047,0.721,1.286,0.942,0.421,0.732,0.694,���k��,5.0,��
2019/09/20,05:50,0.736,1.047,0.719,1.286,0.943,0.421,0.733,0.693,���k��,5.7,��
2019/09/20,06:00,0.737,1.048,0.721,1.288,0.941,0.420,0.732,0.693,���k��,5.7,��
2019/09/20,06:10,0.736,1.048,0.721,1.286,0.942,0.419,0.734,0.694,���k��,5.9,��
2019/09/20,06:20,0.739,1.050,0.721,1.286,0.941,0.418,0.735,0.692,���k��,4.8,��
2019/09/20,06:30,0.738,1.050,0.721,1.287,0.943,0.420,0.734,0.693,��,4.1,��
2019/09/20,06:40,0.739,1.050,0.721,1.286,0.943,0.421,0.735,0.693,��,3.5,��
2019/09/20,06:50,0.737,1.049,0.721,1.284,0.942,0.421,0.733,0.693,���쐼,2.9,��
2019/09/20,07:00,0.738,1.048,0.720,1.288,0.942,0.422,0.736,0.694,�쐼,1.4,��
2019/09/20,07:10,0.741,1.048,0.722,1.285,0.943,0.422,0.733,0.693,��쐼,1.7,��
2019/09/20,07:20,0.739,1.047,0.720,1.288,0.940,0.423,0.733,0.693,���k��,2.0,��
2019/09/20,07:30,0.740,1.048,0.720,1.288,0.940,0.420,0.733,0.693,��,2.2,��
2019/09/20,07:40,0.739,1.046,0.722,1.288,0.941,0.422,0.733,0.694,��,3.7,��
2019/09/20,07:50,0.737,1.050,0.722,1.286,0.940,0.422,0.734,0.694,��,3.6,��
2019/09/20,08:00,0.742,1.051,0.721,1.290,0.942,0.421,0.734,0.695,���쐼,2.9,��
2019/09/20,08:10,0.739,1.048,0.724,1.289,0.941,0.421,0.734,0.695,���쐼,2.9,��
2019/09/20,08:20,0.739,1.049,0.721,1.289,0.941,0.422,0.733,0.694,��,3.3,��
2019/09/20,08:30,0.742,1.052,0.721,1.285,0.941,0.420,0.732,0.696,���쐼,2.8,��
2019/09/20,08:40,0.740,1.049,0.722,1.287,0.944,0.421,0.732,0.695,���쐼,4.3,��
2019/09/20,08:50,0.741,1.044,0.721,1.289,0.942,0.419,0.733,0.695,���쐼,3.9,��
2019/09/20,09:00,0.741,1.050,0.722,1.290,0.940,0.420,0.733,0.693,��,3.8,��
2019/09/20,09:10,0.740,1.049,0.721,1.289,0.942,0.420,0.733,0.692,���쐼,2.6,��
2019/09/20,09:20,0.739,1.047,0.721,1.288,0.940,0.420,0.730,0.691,��,0.9,��
2019/09/20,09:30,0.740,1.047,0.722,1.288,0.939,0.420,0.735,0.690,�k�k��,1.7,��
2019/09/20,09:40,0.738,1.047,0.720,1.289,0.939,0.420,0.734,0.692,-,CALM,��
2019/09/20,09:50,0.738,1.048,0.721,1.289,0.942,0.421,0.734,0.692,�k��,1.2,��
2019/09/20,10:00,0.740,1.049,0.721,1.288,0.940,0.422,0.734,0.691,���쐼,2.0,��
2019/09/20,10:10,0.741,1.051,0.721,1.289,0.941,0.420,0.735,0.692,��,3.0,��
2019/09/20,10:20,0.741,1.049,0.721,1.289,0.941,0.422,0.734,0.693,���k��,3.3,��
2019/09/20,10:30,0.741,1.051,0.721,1.290,0.944,0.421,0.736,0.693,���k��,3.0,��
2019/09/20,10:40,0.743,1.050,0.722,1.291,0.944,0.422,0.734,0.692,�k��,3.0,��
2019/09/20,10:50,0.741,1.048,0.722,1.288,0.943,0.421,0.733,0.693,���k��,4.6,��
2019/09/20,11:00,0.741,1.051,0.722,1.289,0.943,0.420,0.735,0.693,���k��,5.3,��
2019/09/20,11:10,0.742,1.053,0.722,1.288,0.946,0.420,0.732,0.692,���k��,3.2,��
2019/09/20,11:20,0.742,1.051,0.721,1.290,0.945,0.420,0.734,0.692,��,2.9,��
2019/09/20,11:30,0.742,1.053,0.723,1.289,0.944,0.422,0.735,0.694,��,4.5,��
2019/09/20,11:40,0.742,1.052,0.723,1.290,0.945,0.422,0.736,0.694,���k��,4.2,��
2019/09/20,11:50,0.745,1.055,0.721,1.290,0.945,0.422,0.735,0.692,�k��,4.6,��
2019/09/20,12:00,0.743,1.053,0.723,1.289,0.947,0.422,0.734,0.692,�k��,5.3,��
2019/09/20,12:10,0.742,1.056,0.724,1.288,0.945,0.421,0.736,0.692,���k��,4.7,��
2019/09/20,12:20,0.744,1.056,0.722,1.291,0.946,0.420,0.735,0.694,��,3.7,��
2019/09/20,12:30,0.744,1.054,0.723,1.290,0.946,0.421,0.736,0.692,���k��,2.9,��
2019/09/20,12:40,0.745,1.056,0.722,1.290,0.946,0.422,0.735,0.694,���k��,3.8,��
2019/09/20,12:50,0.743,1.055,0.724,1.291,0.949,0.422,0.735,0.694,���k��,3.0,��
2019/09/20,13:00,0.744,1.055,0.723,1.293,0.947,0.422,0.736,0.693,�k��,4.9,��
2019/09/20,13:10,0.744,1.055,0.724,1.292,0.947,0.421,0.733,0.693,�k��,4.5,��
2019/09/20,13:20,0.743,1.056,0.723,1.292,0.946,0.421,0.735,0.692,�k��,4.1,��
2019/09/20,13:30,0.744,1.055,0.725,1.293,0.947,0.421,0.735,0.694,���k��,4.4,��
2019/09/20,13:40,0.743,1.056,0.722,1.292,0.947,0.422,0.736,0.694,�k��,5.2,��
2019/09/20,13:50,0.744,1.056,0.725,1.294,0.947,0.423,0.735,0.693,�k��,3.9,��
2019/09/20,14:00,0.745,1.058,0.725,1.293,0.948,0.421,0.735,0.694,�k��,5.8,��
2019/09/20,14:10,0.744,1.059,0.725,1.294,0.947,0.421,0.735,0.693,���k��,5.7,��
2019/09/20,14:20,0.746,1.055,0.723,1.296,0.949,0.423,0.735,0.693,���k��,5.3,��
2019/09/20,14:30,0.747,1.059,0.724,1.295,0.948,0.421,0.734,0.696,���k��,4.6,��
2019/09/20,14:40,0.745,1.058,0.724,1.297,0.947,0.422,0.734,0.692,���k��,4.4,��
2019/09/20,14:50,0.745,1.060,0.725,1.295,0.948,0.421,0.735,0.693,���k��,4.4,��
2019/09/20,15:00,0.746,1.063,0.725,1.296,0.948,0.422,0.734,0.694,���k��,4.3,��
2019/09/20,15:10,0.745,1.060,0.724,1.296,0.947,0.422,0.734,0.695,���k��,3.6,��
2019/09/20,15:20,0.747,1.061,0.725,1.297,0.949,0.423,0.735,0.694,���쐼,2.3,��
2019/09/20,15:30,0.746,1.062,0.722,1.296,0.949,0.423,0.734,0.693,��,2.0,��
2019/09/20,15:40,0.742,1.060,0.725,1.296,0.951,0.423,0.734,0.692,���쐼,2.3,��
2019/09/20,15:50,0.745,1.062,0.726,1.296,0.952,0.422,0.735,0.693,�쐼,2.0,��
2019/09/20,16:00,0.745,1.061,0.727,1.298,0.952,0.424,0.734,0.694,�쐼,1.5,��
2019/09/20,16:10,0.745,1.059,0.726,1.298,0.952,0.423,0.735,0.693,���쐼,2.0,��
2019/09/20,16:20,0.744,1.060,0.726,1.296,0.951,0.423,0.735,0.695,��,1.5,��
2019/09/20,16:30,0.745,1.059,0.728,1.297,0.950,0.420,0.734,0.695,��쐼,1.7,��
2019/09/20,16:40,0.745,1.060,0.728,1.297,0.952,0.423,0.735,0.697,��쐼,2.5,��
2019/09/20,16:50,0.745,1.060,0.727,1.298,0.955,0.423,0.734,0.695,�쐼,1.5,��
2019/09/20,17:00,0.747,1.060,0.727,1.298,0.952,0.423,0.734,0.696,���쐼,2.3,��
2019/09/20,17:10,0.747,1.061,0.727,1.296,0.950,0.424,0.735,0.694,�쐼,1.5,��
2019/09/20,17:20,0.746,1.062,0.729,1.298,0.953,0.422,0.734,0.696,-,CALM,��
2019/09/20,17:30,0.746,1.061,0.729,1.300,0.954,0.423,0.735,0.698,��쓌,0.6,��
2019/09/20,17:40,0.746,1.062,0.730,1.297,0.951,0.424,0.737,0.696,���쐼,0.8,��
2019/09/20,17:50,0.744,1.060,0.729,1.298,0.951,0.423,0.735,0.697,���쐼,2.3,��
2019/09/20,18:00,0.746,1.061,0.726,1.298,0.952,0.424,0.738,0.697,���쐼,3.1,��
2019/09/20,18:10,0.746,1.063,0.729,1.299,0.952,0.424,0.737,0.695,��,3.6,��
2019/09/20,18:20,0.746,1.061,0.727,1.296,0.953,0.424,0.737,0.696,��,3.5,��
2019/09/20,18:30,0.745,1.059,0.727,1.297,0.951,0.424,0.737,0.696,��,5.1,��
2019/09/20,18:40,0.744,1.058,0.728,1.294,0.951,0.423,0.735,0.697,��,5.0,��
2019/09/20,18:50,0.745,1.063,0.728,1.298,0.953,0.423,0.736,0.695,��,4.4,��
2019/09/20,19:00,0.747,1.059,0.729,1.298,0.949,0.424,0.737,0.696,��,5.3,��
2019/09/20,19:10,0.746,1.058,0.728,1.298,0.950,0.424,0.734,0.696,���k��,4.4,��
2019/09/20,19:20,0.746,1.061,0.729,1.298,0.954,0.422,0.737,0.696,���k��,4.9,��
2019/09/20,19:30,0.744,1.061,0.728,1.297,0.949,0.423,0.734,0.697,���k��,4.7,��
2019/09/20,19:40,0.747,1.059,0.728,1.299,0.953,0.422,0.734,0.697,�k��,4.5,��
2019/09/20,19:50,0.746,1.062,0.728,1.299,0.951,0.424,0.735,0.695,�k��,3.2,��
2019/09/20,20:00,0.744,1.061,0.728,1.297,0.953,0.423,0.737,0.696,�k��,1.5,��
2019/09/20,20:10,0.747,1.059,0.727,1.298,0.951,0.424,0.735,0.697,�k��,2.3,��
2019/09/20,20:20,0.744,1.059,0.729,1.297,0.952,0.422,0.736,0.696,�k��,3.9,��
2019/09/20,20:30,0.745,1.062,0.727,1.298,0.951,0.423,0.735,0.696,�k��,4.8,��
2019/09/20,20:40,0.745,1.059,0.727,1.299,0.951,0.422,0.735,0.696,�k�k��,3.9,��
2019/09/20,20:50,0.746,1.058,0.728,1.296,0.953,0.420,0.737,0.695,�k��,3.9,��
2019/09/20,21:00,0.746,1.059,0.728,1.297,0.950,0.423,0.734,0.696,�k�k��,3.7,��
2019/09/20,21:10,0.745,1.060,0.728,1.296,0.949,0.424,0.735,0.697,�k,3.8,��
2019/09/20,21:20,0.745,1.059,0.727,1.297,0.951,0.422,0.735,0.694,�k�k��,4.4,��
2019/09/20,21:30,0.746,1.059,0.728,1.299,0.951,0.423,0.737,0.695,�k�k��,4.8,��
2019/09/20,21:40,0.746,1.059,0.727,1.297,0.951,0.423,0.735,0.695,�k�k��,6.2,��
2019/09/20,21:50,0.746,1.059,0.728,1.297,0.951,0.424,0.736,0.694,�k�k��,5.8,��
2019/09/20,22:00,0.744,1.058,0.726,1.298,0.951,0.423,0.735,0.696,�k�k��,5.1,��
2019/09/20,22:10,0.745,1.057,0.726,1.298,0.950,0.422,0.735,0.695,�k�k��,4.5,��
2019/09/20,22:20,0.745,1.059,0.726,1.298,0.951,0.422,0.735,0.694,�k�k��,3.4,��
2019/09/20,22:30,0.743,1.059,0.725,1.297,0.951,0.422,0.736,0.696,�k�k��,2.8,��
2019/09/20,22:40,0.745,1.060,0.725,1.296,0.952,0.422,0.735,0.695,�k�k��,3.0,��
2019/09/20,22:50,0.744,1.058,0.725,1.299,0.948,0.423,0.735,0.696,�k�k��,3.2,��
2019/09/20,23:00,0.743,1.060,0.727,1.297,0.951,0.423,0.737,0.696,�k�k��,3.9,��
2019/09/20,23:10,0.744,1.058,0.726,1.297,0.951,0.421,0.735,0.696,�k�k��,3.9,��
2019/09/20,23:20,0.744,1.059,0.726,1.298,0.950,0.421,0.734,0.695,�k�k��,3.5,��
2019/09/20,23:30,0.744,1.059,0.724,1.297,0.952,0.422,0.736,0.696,�k�k��,3.2,��
2019/09/20,23:40,0.747,1.060,0.726,1.301,0.951,0.422,0.735,0.694,�k�k��,3.9,��
2019/09/20,23:50,0.743,1.059,0.723,1.300,0.951,0.421,0.736,0.696,�k�k��,3.5,��
